Mount Holly, NJ

4:53 AM EDT on July 26, 2017 (GMT -0400)
South Jersey Regional

Weather History for KVAY - October, 2012

Change the Weather History Date:

Tuesday, October 9, 2012

  Actual Average (KPNE) Record (KPNE)
Temperature  
Mean Temperature 54 °F -  
Max Temperature 59 °F 66 °F 86 °F (2007)
Min Temperature 50 °F 46 °F 30 °F (2001)
Degree Days  
Heating Degree Days 10    
Growing Degree Days 4 (Base 50)    
Moisture  
Dew Point 51 °F    
Average Humidity 88    
Maximum Humidity 97    
Minimum Humidity 76    
Precipitation  
Precipitation 0.06 in - - ()
Sea Level Pressure  
Sea Level Pressure 30.14 in    
Wind  
Wind Speed 6 mph (NNE)    
Max Wind Speed 9 mph    
Max Gust Speed -    
Visibility 6 miles    
Events Rain    
Averages and records for this station are not official NWS values.
T = Trace of Precipitation, MM = Missing Value Source: NWS Daily Summary

Daily Weather History Graph

Daily Weather History Graph

Search for Another Location

Airport or City:

Trip Planner

Search our weather history database for the weather conditions in past years. The results will help you decide how hot, cold, wet, or windy it might be!

Date:

Astronomy

Oct. 09, 2012 Rise Set
Actual Time 7:04 AM EDT 6:28 PM EDT
Civil Twilight 6:36 AM EDT 6:55 PM EDT
Nautical Twilight 6:05 AM EDT 7:26 PM EDT
Astronomical Twilight 5:34 AM EDT 7:57 PM EDT
Moon 12:38 AM EDT (10/9) 2:53 PM EDT (10/9)
Length of Visible Light 12h 18m
Length of Day
11h 24m
Last Quarter, 37% of the Moon is Illuminated
Oct 9
Last Quarter
Oct 15
New
Oct 21
First Quarter
Oct 29
Full
Nov 6
Last Quarter

Hourly Weather History & Observations

Time (EDT) Temp. Dew Point Humidity Pressure Visibility Wind Dir Wind Speed Gust Speed Precip Events Conditions
12:22 AM 50.0 °F 44.6 °F 82% 30.22 in 10.0 mi North 3.5 mph - N/A   Overcast
12:54 AM 50.0 °F 45.0 °F 83% 30.19 in 10.0 mi NNE 4.6 mph - N/A   Overcast
1:54 AM 50.0 °F 44.1 °F 80% 30.19 in 10.0 mi North 5.8 mph - N/A   Overcast
2:54 AM 51.1 °F 45.0 °F 80% 30.18 in 10.0 mi North 5.8 mph - N/A   Overcast
3:14 AM 51.8 °F 44.6 °F 76% 30.18 in 10.0 mi North 5.8 mph - N/A   Overcast
3:54 AM 51.1 °F 45.0 °F 80% 30.18 in 10.0 mi North 5.8 mph - N/A   Overcast
4:54 AM 51.1 °F 45.0 °F 80% 30.17 in 10.0 mi North 5.8 mph - 0.00 in Rain Light Rain
5:54 AM 52.0 °F 46.0 °F 80% 30.17 in 10.0 mi North 5.8 mph - 0.00 in   Overcast
6:54 AM 52.0 °F 46.0 °F 80% 30.17 in 10.0 mi NNE 6.9 mph - N/A   Overcast
7:28 AM 50.0 °F 46.4 °F 87% 30.17 in 6.0 mi North 6.9 mph - 0.00 in Rain Light Rain
7:54 AM 50.0 °F 48.0 °F 93% 30.17 in 2.0 mi North 6.9 mph - 0.01 in Rain Light Rain
8:10 AM 50.0 °F 48.2 °F 94% 30.17 in 3.0 mi North 9.2 mph - 0.01 in Rain Light Rain
8:54 AM 51.1 °F 48.9 °F 92% 30.18 in 5.0 mi North 5.8 mph - 0.01 in Rain Light Rain
9:06 AM 51.8 °F 48.2 °F 88% 30.18 in 3.0 mi North 6.9 mph - 0.00 in Rain Light Rain
9:13 AM 51.8 °F 48.2 °F 88% 30.18 in 2.5 mi North 5.8 mph - 0.01 in Rain Light Rain
9:20 AM 51.8 °F 48.2 °F 88% 30.18 in 4.0 mi North 8.1 mph - 0.01 in Rain Light Rain
9:54 AM 52.0 °F 50.0 °F 93% 30.18 in 6.0 mi NNE 5.8 mph - 0.01 in Rain Light Rain
10:54 AM 54.0 °F 51.1 °F 90% 30.18 in 10.0 mi NNE 6.9 mph - 0.00 in   Overcast
11:54 AM 55.0 °F 52.0 °F 89% 30.16 in 10.0 mi Variable 6.9 mph - N/A   Overcast
12:54 PM 55.9 °F 53.1 °F 90% 30.14 in 10.0 mi NNE 8.1 mph - N/A   Overcast
1:19 PM 57.2 °F 53.6 °F 88% 30.13 in 10.0 mi NNE 5.8 mph - N/A   Overcast
1:54 PM 57.9 °F 53.1 °F 84% 30.12 in 10.0 mi NNE 8.1 mph - N/A   Overcast
2:54 PM 57.9 °F 54.0 °F 87% 30.11 in 10.0 mi NE 6.9 mph - N/A   Overcast
3:54 PM 59.0 °F 54.0 °F 83% 30.11 in 10.0 mi NNE 5.8 mph - N/A   Overcast
4:54 PM 57.9 °F 54.0 °F 87% 30.10 in 10.0 mi NNE 5.8 mph - N/A   Overcast
5:54 PM 57.0 °F 54.0 °F 89% 30.10 in 3.0 mi NNE 4.6 mph - N/A   Overcast
6:03 PM 57.2 °F 55.4 °F 94% 30.10 in 2.0 mi NNE 5.8 mph - N/A   Overcast
6:05 PM 57.2 °F 55.4 °F 94% 30.10 in 1.8 mi NNE 4.6 mph - N/A   Overcast
6:30 PM 57.2 °F 55.4 °F 94% 30.10 in 1.2 mi NNE 5.8 mph - N/A   Overcast
6:45 PM 57.2 °F 55.4 °F 94% 30.10 in 2.5 mi North 4.6 mph - N/A   Overcast
6:54 PM 55.9 °F 55.0 °F 97% 30.10 in 2.5 mi North 3.5 mph - N/A   Overcast
7:33 PM 57.2 °F 55.4 °F 94% 30.09 in 3.0 mi North 4.6 mph - N/A   Overcast
7:41 PM 57.2 °F 55.4 °F 94% 30.09 in 2.5 mi North 3.5 mph - N/A   Overcast
7:54 PM 57.0 °F 55.0 °F 93% 30.09 in 5.0 mi NNE 4.6 mph - N/A   Overcast
8:44 PM 57.2 °F 55.4 °F 94% 30.09 in 3.0 mi NNE 4.6 mph - 0.01 in Rain Light Rain
8:54 PM 57.0 °F 55.0 °F 93% 30.09 in 9.0 mi North 3.5 mph - 0.01 in   Overcast
9:54 PM 57.0 °F 55.0 °F 93% 30.08 in 3.0 mi NNE 4.6 mph - 0.02 in Rain Light Rain
10:54 PM 57.0 °F 55.0 °F 93% 30.07 in 5.0 mi NNE 4.6 mph - 0.00 in   Overcast
11:54 PM 57.0 °F 55.0 °F 93% 30.06 in 4.0 mi North 5.8 mph - 0.00 in Rain Light Rain